Location: Antioch Church
(34.9543°N, 88.5145°W)
Time: 05:06:39
(UTC+00:00)

Okean 1-7 - Pass Details

Date: 11 December 2019
Orbit: 590 x 619 km, 82.5° (Epoch: 24 January)

Event Time Altitude Azimuth Distance (km) Brightness Sun altitude
Rises 00:01:52 0° 191° (S) 2,837 6.9 -15.8°
Reaches altitude 10° 00:04:04 10° 194° (SSW) 1,943 6.0 -16.2°
Maximum altitude 00:08:21 68° 277° (W) 656 3.3 -17.1°
Drops below altitude 10° 00:12:42 10° 1° (N) 1,974 5.5 -17.9°
Enters shadow 00:14:23 - 3° (N) 2,653 6.1 -18.3°
